datetime,"average soil temperature, 2 in depth"
2004-10-20,47.85
2004-10-21,43.48
2004-10-22,40.2
2004-10-23,42.18
2004-10-24,41.4
2004-10-25,39.22
2004-10-26,39.86
2004-10-27,
2004-10-28,
2004-10-29,
2004-10-30,
2004-10-31,
2004-11-01,
2004-11-02,
2004-11-03,
2004-11-04,37.48
2004-11-05,35.32
2004-11-06,35.39
2004-11-07,35.81
2004-11-08,37.07
2004-11-09,37.65
2004-11-10,40.32
2004-11-11,40.95
2004-11-12,41.75
2004-11-13,42.27
2004-11-14,38.75
2004-11-15,38.76
2004-11-16,43.02
2004-11-17,
2004-11-18,36.31
2004-11-19,34.58
2004-11-20,33.19
2004-11-21,32.54
2004-11-22,32.26
2004-11-23,32.14
2004-11-24,32.17
2004-11-25,32.29
2004-11-26,32.45
2004-11-27,32.64
2004-11-28,32.62
2004-11-29,32.31
2004-11-30,32.0
2004-12-01,31.96
2004-12-02,31.8
2004-12-03,31.1
2004-12-04,30.53
2004-12-05,30.78
2004-12-06,31.23
2004-12-07,31.54
2004-12-08,
2004-12-09,
2004-12-10,31.88
2004-12-11,31.89
2004-12-12,
2004-12-13,
2004-12-14,
2004-12-15,33.12
2004-12-16,32.49
2004-12-17,32.25
2004-12-18,32.11
2004-12-19,31.99
2004-12-20,31.91
2004-12-21,31.31
2004-12-22,30.57
2004-12-23,29.9
2004-12-24,29.01
2004-12-25,29.0
2004-12-26,30.46
2004-12-27,31.33
2004-12-28,31.45
2004-12-29,
2004-12-30,
2004-12-31,
2005-01-01,
2005-01-02,
2005-01-03,
2005-01-04,
2005-01-05,
2005-01-06,
2005-01-07,31.26
2005-01-08,31.1
2005-01-09,31.17
2005-01-10,
2005-01-11,
2005-01-12,
2005-01-13,
2005-01-14,29.05
2005-01-15,30.34
2005-01-16,31.1
2005-01-17,31.37
2005-01-18,31.5
2005-01-19,31.59
2005-01-20,31.39
2005-01-21,30.2
2005-01-22,29.56
2005-01-23,29.76
2005-01-24,30.14
2005-01-25,31.2
2005-01-26,31.5
2005-01-27,31.62
2005-01-28,31.69
2005-01-29,
2005-01-30,
2005-01-31,
2005-02-01,31.73
2005-02-02,31.32
2005-02-03,31.25
2005-02-04,31.48
2005-02-05,31.48
2005-02-06,30.88
2005-02-07,31.46
2005-02-08,31.05
2005-02-09,30.36
2005-02-10,29.85
2005-02-11,30.55
2005-02-12,31.09
2005-02-13,31.52
2005-02-14,31.63
2005-02-15,31.58
2005-02-16,31.2
2005-02-17,31.21
2005-02-18,31.5
2005-02-19,31.64
2005-02-20,31.73
2005-02-21,31.79
2005-02-22,31.83
2005-02-23,31.88
2005-02-24,31.92
2005-02-25,32.04
2005-02-26,32.24
2005-02-27,32.83
2005-02-28,33.77
2005-03-01,32.61
2005-03-02,35.09
2005-03-03,35.47
2005-03-04,38.09
2005-03-05,37.98
2005-03-06,39.27
2005-03-07,41.52
2005-03-08,42.51
2005-03-09,42.79
2005-03-10,43.08
2005-03-11,43.77
2005-03-12,44.08
2005-03-13,41.39
2005-03-14,39.87
2005-03-15,39.98
2005-03-16,39.85
2005-03-17,40.88
2005-03-18,40.26
2005-03-19,42.02
2005-03-20,38.73
2005-03-21,39.32
2005-03-22,39.43
2005-03-23,38.91
2005-03-24,37.86
2005-03-25,39.11
2005-03-26,41.39
2005-03-27,41.12
2005-03-28,39.49
2005-03-29,39.08
2005-03-30,39.83
2005-03-31,41.33
2005-04-01,43.2
2005-04-02,41.8
2005-04-03,41.29
2005-04-04,39.7
2005-04-05,43.26
2005-04-06,46.6
2005-04-07,45.88
2005-04-08,41.21
2005-04-09,43.17
2005-04-10,44.25
2005-04-11,47.35
2005-04-12,43.72
2005-04-13,43.33
2005-04-14,44.46
2005-04-15,45.89
2005-04-16,46.17
2005-04-17,46.33
2005-04-18,41.41
2005-04-19,41.31
2005-04-20,42.82
2005-04-21,46.76
2005-04-22,47.17
2005-04-23,48.97
2005-04-24,50.3
2005-04-25,51.49
2005-04-26,53.61
2005-04-27,53.4
2005-04-28,52.37
2005-04-29,52.36
2005-04-30,53.73
2005-05-01,52.03
2005-05-02,53.17
2005-05-03,54.48
2005-05-04,56.35
2005-05-05,55.6
2005-05-06,52.96
2005-05-07,52.59
2005-05-08,52.12
2005-05-09,48.97
2005-05-10,47.55
2005-05-11,50.09
2005-05-12,53.57
2005-05-13,57.79
2005-05-14,61.33
2005-05-15,59.34
2005-05-16,56.07
2005-05-17,50.51
2005-05-18,49.7
2005-05-19,51.13
2005-05-20,55.07
2005-05-21,55.19
2005-05-22,59.34
2005-05-23,59.02
2005-05-24,60.71
2005-05-25,62.28
2005-05-26,64.75
2005-05-27,67.11
2005-05-28,63.19
2005-05-29,61.24
2005-05-30,63.08
2005-05-31,61.82
2005-06-01,60.8
2005-06-02,61.09
2005-06-03,62.37
2005-06-04,63.01
2005-06-05,61.91
2005-06-06,53.82
2005-06-07,52.73
2005-06-08,57.28
2005-06-09,59.44
2005-06-10,60.92
2005-06-11,61.45
2005-06-12,60.85
2005-06-13,62.27
2005-06-14,63.52
2005-06-15,62.99
2005-06-16,59.68
2005-06-17,54.2
2005-06-18,55.15
2005-06-19,59.07
2005-06-20,61.04
2005-06-21,60.06
2005-06-22,61.88
2005-06-23,63.67
2005-06-24,65.04
2005-06-25,65.32
2005-06-26,64.17
2005-06-27,65.04
2005-06-28,65.61
2005-06-29,66.23
2005-06-30,67.35
2005-07-01,67.88
2005-07-02,66.1
2005-07-03,66.22
2005-07-04,67.65
2005-07-05,69.57
2005-07-06,69.64
2005-07-07,70.12
2005-07-08,69.72
2005-07-09,69.45
2005-07-10,69.72
2005-07-11,69.71
2005-07-12,70.57
2005-07-13,71.14
2005-07-14,70.81
2005-07-15,72.42
2005-07-16,73.61
2005-07-17,73.33
2005-07-18,73.73
2005-07-19,73.77
2005-07-20,73.66
2005-07-21,71.75
2005-07-22,74.54
2005-07-23,72.98
2005-07-24,72.35
2005-07-25,70.9
2005-07-26,70.96
2005-07-27,71.0
2005-07-28,71.33
2005-07-29,71.28
2005-07-30,71.48
2005-07-31,71.78
2005-08-01,71.53
2005-08-02,71.42
2005-08-03,70.73
2005-08-04,70.77
2005-08-05,71.96
2005-08-06,72.61
2005-08-07,72.22
2005-08-08,71.57
2005-08-09,70.82
2005-08-10,70.08
2005-08-11,68.85
2005-08-12,67.64
2005-08-13,67.81
2005-08-14,67.56
2005-08-15,67.53
2005-08-16,67.96
2005-08-17,66.79
2005-08-18,67.31
2005-08-19,66.43
2005-08-20,65.93
2005-08-21,65.9
2005-08-22,65.67
2005-08-23,64.5
2005-08-24,63.62
2005-08-25,63.33
2005-08-26,62.37
2005-08-27,62.05
2005-08-28,62.08
2005-08-29,61.99
2005-08-30,59.01
2005-08-31,58.93
2005-09-01,59.69
2005-09-02,60.15
2005-09-03,59.44
2005-09-04,59.51
2005-09-05,58.33
2005-09-06,57.99
2005-09-07,58.8
2005-09-08,58.78
2005-09-09,57.97
2005-09-10,54.65
2005-09-11,52.38
2005-09-12,52.24
2005-09-13,52.75
2005-09-14,52.95
2005-09-15,53.17
2005-09-16,51.95
2005-09-17,52.61
2005-09-18,50.4
2005-09-19,50.44
2005-09-20,51.78
2005-09-21,53.07
2005-09-22,52.01
2005-09-23,51.53
2005-09-24,48.14
2005-09-25,45.85
2005-09-26,46.29
2005-09-27,51.29
2005-09-28,48.55
2005-09-29,47.74
2005-09-30,49.5
2005-10-01,49.48
2005-10-02,44.47
2005-10-03,44.99
2005-10-04,43.39
2005-10-05,42.95
2005-10-06,43.33
2005-10-07,44.43
2005-10-08,44.04
2005-10-09,45.0
2005-10-10,43.06
2005-10-11,47.0
2005-10-12,44.94
2005-10-13,45.05
2005-10-14,45.23
2005-10-15,46.55
2005-10-16,44.09
2005-10-17,44.9
2005-10-18,44.92
2005-10-19,46.06
2005-10-20,44.48
2005-10-21,43.2
2005-10-22,42.84
2005-10-23,42.35
2005-10-24,43.24
2005-10-25,43.29
2005-10-26,45.61
2005-10-27,42.72
2005-10-28,44.24
2005-10-29,44.1
2005-10-30,39.61
2005-10-31,42.6
2005-11-01,42.51
2005-11-02,43.03
2005-11-03,39.38
2005-11-04,39.38
2005-11-05,39.78
2005-11-06,41.41
2005-11-07,39.88
2005-11-08,38.99
2005-11-09,38.46
2005-11-10,37.55
2005-11-11,37.0
2005-11-12,36.78
2005-11-13,37.92
2005-11-14,40.22
2005-11-15,36.16
2005-11-16,34.48
2005-11-17,33.71
2005-11-18,33.26
2005-11-19,32.91
2005-11-20,32.72
2005-11-21,32.61
2005-11-22,32.51
2005-11-23,32.34
2005-11-24,32.18
2005-11-25,32.21
2005-11-26,32.29
2005-11-27,32.41
2005-11-28,32.49
2005-11-29,32.46
2005-11-30,32.49
2005-12-01,32.47
2005-12-02,32.47
2005-12-03,32.54
2005-12-04,32.63
2005-12-05,32.68
2005-12-06,32.68
2005-12-07,32.57
2005-12-08,32.56
2005-12-09,32.57
2005-12-10,32.58
2005-12-11,32.47
2005-12-12,32.3
2005-12-13,32.05
2005-12-14,31.6
2005-12-15,30.98
2005-12-16,30.44
2005-12-17,29.96
2005-12-18,30.8
2005-12-19,31.52
2005-12-20,31.7
2005-12-21,31.78
2005-12-22,31.82
2005-12-23,31.86
2005-12-24,31.86
2005-12-25,31.87
2005-12-26,31.87
2005-12-27,31.87
2005-12-28,31.88
2005-12-29,31.88
2005-12-30,31.89
2005-12-31,31.91
2006-01-01,31.92
2006-01-02,31.93
2006-01-03,31.94
2006-01-04,31.97
2006-01-05,32.15
2006-01-06,33.33
2006-01-07,33.72
2006-01-08,33.0
2006-01-09,32.67
2006-01-10,33.6
2006-01-11,34.9
2006-01-12,33.59
2006-01-13,36.18
2006-01-14,35.02
2006-01-15,33.52
2006-01-16,33.02
2006-01-17,32.84
2006-01-18,32.86
2006-01-19,32.9
2006-01-20,32.89
2006-01-21,32.88
2006-01-22,32.81
2006-01-23,32.69
2006-01-24,32.61
2006-01-25,32.51
2006-01-26,32.49
2006-01-27,32.48
2006-01-28,32.47
2006-01-29,32.5
2006-01-30,32.48
2006-01-31,32.51
2006-02-01,32.54
2006-02-02,32.56
2006-02-03,32.57
2006-02-04,32.49
2006-02-05,32.51
2006-02-06,32.38
2006-02-07,32.24
2006-02-08,32.17
2006-02-09,32.17
2006-02-10,32.17
2006-02-11,32.11
2006-02-12,32.1
2006-02-13,32.11
2006-02-14,32.09
2006-02-15,32.02
2006-02-16,31.93
2006-02-17,31.78
2006-02-18,31.38
2006-02-19,30.67
2006-02-20,30.16
2006-02-21,31.19
2006-02-22,31.44
2006-02-23,31.59
2006-02-24,31.66
2006-02-25,31.73
2006-02-26,31.77
2006-02-27,31.92
2006-02-28,31.93
2006-03-01,31.92
2006-03-02,31.92
2006-03-03,31.93
2006-03-04,31.92
2006-03-05,31.92
2006-03-06,31.92
2006-03-07,31.92
2006-03-08,31.92
2006-03-09,31.93
2006-03-10,31.92
2006-03-11,31.91
2006-03-12,31.91
2006-03-13,31.91
2006-03-14,31.91
2006-03-15,31.91
2006-03-16,31.92
2006-03-17,31.92
2006-03-18,31.92
2006-03-19,31.93
2006-03-20,31.93
2006-03-21,31.92
2006-03-22,31.93
2006-03-23,31.96
2006-03-24,32.67
2006-03-25,33.61
2006-03-26,34.04
2006-03-27,34.59
2006-03-28,36.68
2006-03-29,36.89
2006-03-30,35.98
2006-03-31,36.94
2006-04-01,36.69
2006-04-02,37.24
2006-04-03,38.78
2006-04-04,38.54
2006-04-05,39.31
2006-04-06,38.47
2006-04-07,41.04
2006-04-08,41.49
2006-04-09,39.77
2006-04-10,39.61
2006-04-11,39.99
2006-04-12,42.2
2006-04-13,43.33
2006-04-14,43.51
2006-04-15,41.97
2006-04-16,39.11
2006-04-17,38.73
2006-04-18,38.94
2006-04-19,41.06
2006-04-20,44.02
2006-04-21,46.3
2006-04-22,43.97
2006-04-23,43.07
2006-04-24,44.4
2006-04-25,47.31
2006-04-26,47.74
2006-04-27,49.12
2006-04-28,51.39
2006-04-29,53.06
2006-04-30,50.92
2006-05-01,49.5
2006-05-02,47.67
2006-05-03,48.5
2006-05-04,49.12
2006-05-05,49.68
2006-05-06,52.04
2006-05-07,51.26
2006-05-08,51.7
2006-05-09,50.68
2006-05-10,52.27
2006-05-11,53.65
2006-05-12,54.07
2006-05-13,56.71
2006-05-14,61.32
2006-05-15,63.41
2006-05-16,65.05
2006-05-17,66.65
2006-05-18,66.67
2006-05-19,64.13
2006-05-20,61.95
2006-05-21,59.9
2006-05-22,59.02
2006-05-23,57.64
2006-05-24,56.25
2006-05-25,56.25
2006-05-26,54.81
2006-05-27,52.23
2006-05-28,52.22
2006-05-29,53.34
2006-05-30,54.6
2006-05-31,59.13
2006-06-01,60.34
2006-06-02,59.11
2006-06-03,61.63
2006-06-04,64.4
2006-06-05,63.41
2006-06-06,65.32
2006-06-07,65.21
2006-06-08,64.46
2006-06-09,63.28
2006-06-10,62.84
2006-06-11,64.28
2006-06-12,62.84
2006-06-13,61.61
2006-06-14,61.13
2006-06-15,62.59
2006-06-16,63.03
2006-06-17,62.4
2006-06-18,62.43
2006-06-19,62.71
2006-06-20,62.33
2006-06-21,62.59
2006-06-22,62.58
2006-06-23,63.1
2006-06-24,64.26
2006-06-25,70.96
2006-06-26,74.35
2006-06-27,75.13
2006-06-28,75.5
2006-06-29,76.06
2006-06-30,75.05
2006-07-01,75.34
2006-07-02,75.12
2006-07-03,74.77
2006-07-04,72.78
2006-07-05,71.21
2006-07-06,70.65
2006-07-07,68.38
2006-07-08,69.36
2006-07-09,70.78
2006-07-10,71.22
2006-07-11,70.58
2006-07-12,69.38
2006-07-13,67.63
2006-07-14,70.46
2006-07-15,73.93
2006-07-16,75.35
2006-07-17,75.55
2006-07-18,74.35
2006-07-19,73.48
2006-07-20,73.83
2006-07-21,72.57
2006-07-22,74.41
2006-07-23,74.87
2006-07-24,75.55
2006-07-25,75.43
2006-07-26,75.01
2006-07-27,74.4
2006-07-28,73.7
2006-07-29,71.85
2006-07-30,69.13
2006-07-31,66.28
2006-08-01,66.12
2006-08-02,65.72
2006-08-03,66.14
2006-08-04,67.1
2006-08-05,66.78
2006-08-06,67.51
2006-08-07,67.08
2006-08-08,65.45
2006-08-09,63.8
2006-08-10,63.83
2006-08-11,63.74
2006-08-12,62.27
2006-08-13,61.81
2006-08-14,62.78
2006-08-15,63.7
2006-08-16,62.36
2006-08-17,60.71
2006-08-18,60.27
2006-08-19,61.14
2006-08-20,62.07
2006-08-21,63.04
2006-08-22,61.68
2006-08-23,61.3
2006-08-24,60.3
2006-08-25,59.37
2006-08-26,59.7
2006-08-27,60.11
2006-08-28,60.98
2006-08-29,61.25
2006-08-30,58.12
2006-08-31,56.3
2006-09-01,56.52
2006-09-02,57.94
2006-09-03,58.95
2006-09-04,59.62
2006-09-05,58.86
2006-09-06,59.89
2006-09-07,60.62
2006-09-08,60.17
2006-09-09,59.38
2006-09-10,58.01
2006-09-11,58.16
2006-09-12,58.86
2006-09-13,58.78
2006-09-14,57.97
2006-09-15,52.68
2006-09-16,51.72
2006-09-17,51.44
2006-09-18,52.71
2006-09-19,53.08
2006-09-20,50.1
2006-09-21,53.4
2006-09-22,50.07
2006-09-23,49.49
2006-09-24,49.77
2006-09-25,49.67
2006-09-26,50.11
2006-09-27,50.58
2006-09-28,51.2
2006-09-29,50.86
2006-09-30,50.97
2006-10-01,50.68
2006-10-02,50.93
2006-10-03,50.0
2006-10-04,48.84
2006-10-05,50.05
2006-10-06,49.82
2006-10-07,47.64
2006-10-08,44.94
2006-10-09,47.64
2006-10-10,43.81
2006-10-11,42.44
2006-10-12,42.72
2006-10-13,42.8
2006-10-14,43.1
2006-10-15,44.38
2006-10-16,43.98
2006-10-17,42.11
2006-10-18,40.48
2006-10-19,45.82
2006-10-20,45.32
2006-10-21,41.45
2006-10-22,39.79
2006-10-23,40.08
2006-10-24,40.43
2006-10-25,39.12
2006-10-26,37.93
2006-10-27,37.88
2006-10-28,37.65
2006-10-29,37.37
2006-10-30,35.93
2006-10-31,32.61
2006-11-01,31.39
2006-11-02,38.14
2006-11-03,41.67
2006-11-04,43.73
2006-11-05,46.43
2006-11-06,48.92
2006-11-07,49.21
2006-11-08,47.65
2006-11-09,42.62
2006-11-10,37.93
2006-11-11,38.78
2006-11-12,36.06
2006-11-13,35.14
2006-11-14,34.99
2006-11-15,34.95
2006-11-16,38.17
2006-11-17,39.24
2006-11-18,39.91
2006-11-19,42.17
2006-11-20,44.58
2006-11-21,42.07
2006-11-22,40.51
2006-11-23,37.63
2006-11-24,36.6
2006-11-25,35.52
2006-11-26,34.74
2006-11-27,34.56
2006-11-28,34.49
2006-11-29,34.27
2006-11-30,33.97
2006-12-01,33.94
2006-12-02,33.64
2006-12-03,33.23
2006-12-04,32.75
2006-12-05,32.37
2006-12-06,32.07
2006-12-07,31.7
2006-12-08,31.63
2006-12-09,31.81
2006-12-10,31.91
2006-12-11,31.95
2006-12-12,32.06
2006-12-13,35.01
2006-12-14,39.4
2006-12-15,37.86
2006-12-16,34.59
2006-12-17,33.24
2006-12-18,31.96
2006-12-19,31.01
2006-12-20,30.54
2006-12-21,31.52
2006-12-22,31.62
2006-12-23,31.73
2006-12-24,31.81
2006-12-25,31.84
2006-12-26,31.9
2006-12-27,31.92
2006-12-28,31.92
2006-12-29,31.83
2006-12-30,31.27
2006-12-31,31.44
2007-01-01,30.9
2007-01-02,31.62
2007-01-03,31.75
2007-01-04,31.83
2007-01-05,31.78
2007-01-06,31.65
2007-01-07,31.7
2007-01-08,31.7
2007-01-09,31.68
2007-01-10,31.73
2007-01-11,30.7
2007-01-12,27.91
2007-01-13,26.39
2007-01-14,26.66
2007-01-15,25.07
2007-01-16,25.9
2007-01-17,28.33
2007-01-18,26.73
2007-01-19,27.99
2007-01-20,27.32
2007-01-21,26.49
2007-01-22,26.54
2007-01-23,27.23
2007-01-24,27.55
2007-01-25,28.34
2007-01-26,28.93
2007-01-27,29.12
2007-01-28,27.51
2007-01-29,27.48
2007-01-30,28.24
2007-01-31,27.35
2007-02-01,26.59
2007-02-02,26.35
2007-02-03,28.58
2007-02-04,30.09
2007-02-05,31.15
2007-02-06,31.43
2007-02-07,31.56
2007-02-08,31.66
2007-02-09,31.77
2007-02-10,31.82
2007-02-11,31.87
2007-02-12,31.87
2007-02-13,31.88
2007-02-14,31.89
2007-02-15,31.89
2007-02-16,32.49
2007-02-17,32.65
2007-02-18,32.33
2007-02-19,31.94
2007-02-20,31.92
2007-02-21,31.92
2007-02-22,31.92
2007-02-23,31.92
2007-02-24,31.93
2007-02-25,31.93
2007-02-26,31.93
2007-02-27,31.92
2007-02-28,31.91
2007-03-01,31.92
2007-03-02,31.92
2007-03-03,31.92
2007-03-04,31.93
2007-03-05,31.93
2007-03-06,31.93
2007-03-07,31.93
2007-03-08,31.93
2007-03-09,32.01
2007-03-10,33.55
2007-03-11,35.52
2007-03-12,36.63
2007-03-13,38.04
2007-03-14,39.05
2007-03-15,40.67
2007-03-16,43.17
2007-03-17,44.31
2007-03-18,44.57
2007-03-19,42.77
2007-03-20,43.57
2007-03-21,41.03
2007-03-22,41.96
2007-03-23,44.1
2007-03-24,45.75
2007-03-25,45.11
2007-03-26,41.98
2007-03-27,39.25
2007-03-28,39.01
2007-03-29,40.39
2007-03-30,42.7
2007-03-31,43.69
2007-04-01,42.9
2007-04-02,42.69
2007-04-03,44.21
2007-04-04,45.78
2007-04-05,46.85
2007-04-06,48.8
2007-04-07,49.8
2007-04-08,46.53
2007-04-09,47.06
2007-04-10,45.67
2007-04-11,44.08
2007-04-12,43.81
2007-04-13,44.23
2007-04-14,45.17
2007-04-15,44.9
2007-04-16,45.24
2007-04-17,47.21
2007-04-18,42.4
2007-04-19,39.73
2007-04-20,44.24
2007-04-21,42.15
2007-04-22,44.13
2007-04-23,46.23
2007-04-24,49.17
2007-04-25,49.71
2007-04-26,49.77
2007-04-27,51.81
2007-04-28,53.72
2007-04-29,54.26
2007-04-30,54.12
2007-05-01,50.79
2007-05-02,50.18
2007-05-03,46.59
2007-05-04,46.56
2007-05-05,47.5
2007-05-06,50.55
2007-05-07,54.61
2007-05-08,55.76
2007-05-09,57.92
2007-05-10,58.47
2007-05-11,57.7
2007-05-12,56.75
2007-05-13,54.27
2007-05-14,54.52
2007-05-15,55.93
2007-05-16,58.74
2007-05-17,58.83
2007-05-18,58.34
2007-05-19,58.6
2007-05-20,55.84
2007-05-21,56.73
2007-05-22,56.57
2007-05-23,57.43
2007-05-24,60.03
2007-05-25,60.23
2007-05-26,60.89
2007-05-27,61.6
2007-05-28,59.08
2007-05-29,59.36
2007-05-30,60.66
2007-05-31,62.68
2007-06-01,63.41
2007-06-02,63.88
2007-06-03,63.42
2007-06-04,62.22
2007-06-05,59.08
2007-06-06,54.91
2007-06-07,54.81
2007-06-08,56.67
2007-06-09,57.07
2007-06-10,58.95
2007-06-11,56.77
2007-06-12,57.49
2007-06-13,59.82
2007-06-14,60.34
2007-06-15,61.05
2007-06-16,60.96
2007-06-17,58.97
2007-06-18,59.56
2007-06-19,61.02
2007-06-20,62.61
2007-06-21,62.53
2007-06-22,61.89
2007-06-23,60.38
2007-06-24,58.67
2007-06-25,57.53
2007-06-26,58.86
2007-06-27,61.37
2007-06-28,61.83
2007-06-29,61.91
2007-06-30,61.54
2007-07-01,62.38
2007-07-02,63.54
2007-07-03,63.9
2007-07-04,66.31
2007-07-05,68.13
2007-07-06,68.86
2007-07-07,69.2
2007-07-08,67.68
2007-07-09,67.83
2007-07-10,68.06
2007-07-11,68.87
2007-07-12,68.2
2007-07-13,66.93
2007-07-14,67.14
2007-07-15,67.36
2007-07-16,67.0
2007-07-17,66.02
2007-07-18,64.62
2007-07-19,62.58
2007-07-20,62.13
2007-07-21,64.32
2007-07-22,66.59
2007-07-23,68.13
2007-07-24,68.55
2007-07-25,68.58
2007-07-26,68.96
2007-07-27,69.07
2007-07-28,68.9
2007-07-29,68.67
2007-07-30,68.17
2007-07-31,68.01
2007-08-01,68.65
2007-08-02,70.01
2007-08-03,68.82
2007-08-04,66.86
2007-08-05,65.22
2007-08-06,65.16
2007-08-07,64.02
2007-08-08,64.35
2007-08-09,64.98
2007-08-10,64.21
2007-08-11,63.71
2007-08-12,63.79
2007-08-13,62.87
2007-08-14,62.11
2007-08-15,62.0
2007-08-16,62.34
2007-08-17,62.23
2007-08-18,61.01
2007-08-19,62.83
2007-08-20,61.05
2007-08-21,65.4
2007-08-22,64.07
2007-08-23,62.74
2007-08-24,61.95
2007-08-25,63.17
2007-08-26,62.64
2007-08-27,62.26
2007-08-28,61.81
2007-08-29,62.51
2007-08-30,64.94
2007-08-31,65.39
2007-09-01,64.02
2007-09-02,62.39
2007-09-03,61.43
2007-09-04,58.67
2007-09-05,56.72
2007-09-06,58.0
2007-09-07,58.39
2007-09-08,57.67
2007-09-09,56.14
2007-09-10,54.63
2007-09-11,54.89
2007-09-12,56.52
2007-09-13,56.83
2007-09-14,54.51
2007-09-15,53.34
2007-09-16,53.24
2007-09-17,55.62
2007-09-18,54.22
2007-09-19,50.98
2007-09-20,51.03
2007-09-21,52.19
2007-09-22,51.85
2007-09-23,50.17
2007-09-24,46.77
2007-09-25,46.2
2007-09-26,47.32
2007-09-27,48.03
2007-09-28,46.77
2007-09-29,43.14
2007-09-30,44.16
2007-10-01,46.78
2007-10-02,45.62
2007-10-03,48.56
2007-10-04,44.1
2007-10-05,42.57
2007-10-06,41.19
2007-10-07,43.6
2007-10-08,44.84
2007-10-09,45.94
2007-10-10,47.06
2007-10-11,44.08
2007-10-12,45.77
2007-10-13,45.0
2007-10-14,43.53
2007-10-15,44.42
2007-10-16,44.56
2007-10-17,43.22
2007-10-18,43.02
2007-10-19,45.11
2007-10-20,42.92
2007-10-21,39.49
2007-10-22,39.18
2007-10-23,40.25
2007-10-24,41.21
2007-10-25,41.24
2007-10-26,40.46
2007-10-27,39.11
2007-10-28,38.7
2007-10-29,38.98
2007-10-30,41.76
2007-10-31,39.28
2007-11-01,38.76
2007-11-02,37.03
2007-11-03,36.0
2007-11-04,35.6
2007-11-05,35.54
2007-11-06,35.25
2007-11-07,34.96
2007-11-08,34.8
2007-11-09,36.74
2007-11-10,39.09
2007-11-11,38.72
2007-11-12,37.35
2007-11-13,40.38
2007-11-14,37.24
2007-11-15,38.95
2007-11-16,41.93
2007-11-17,43.65
2007-11-18,44.95
2007-11-19,42.92
2007-11-20,38.2
2007-11-21,36.01
2007-11-22,34.8
2007-11-23,33.69
2007-11-24,32.84
2007-11-25,32.67
2007-11-26,32.47
2007-11-27,32.47
2007-11-28,32.19
2007-11-29,32.12
2007-11-30,32.05
2007-12-01,31.5
2007-12-02,31.58
2007-12-03,31.81
2007-12-04,31.9
2007-12-05,31.92
2007-12-06,31.95
2007-12-07,32.03
2007-12-08,32.12
2007-12-09,32.26
2007-12-10,32.38
2007-12-11,32.27
2007-12-12,32.07
2007-12-13,31.92
2007-12-14,31.62
2007-12-15,31.75
2007-12-16,31.85
2007-12-17,31.88
2007-12-18,31.9
2007-12-19,31.92
2007-12-20,31.93
2007-12-21,31.96
2007-12-22,31.98
2007-12-23,31.97
2007-12-24,31.99
2007-12-25,31.8
2007-12-26,31.45
2007-12-27,30.81
2007-12-28,31.26
2007-12-29,31.5
2007-12-30,31.42
2007-12-31,30.37
2008-01-01,29.75
2008-01-02,30.44
2008-01-03,31.2
2008-01-04,31.55
2008-01-05,31.67
2008-01-06,31.56
2008-01-07,31.37
2008-01-08,31.37
2008-01-09,31.45
2008-01-10,31.52
2008-01-11,31.61
2008-01-12,31.66
2008-01-13,31.68
2008-01-14,31.59
2008-01-15,31.42
2008-01-16,30.72
2008-01-17,30.1
2008-01-18,29.82
2008-01-19,29.67
2008-01-20,30.15
2008-01-21,30.61
2008-01-22,29.64
2008-01-23,28.76
2008-01-24,28.4
2008-01-25,29.2
2008-01-26,30.07
2008-01-27,30.98
2008-01-28,31.4
2008-01-29,31.53
2008-01-30,31.49
2008-01-31,31.39
2008-02-01,31.33
2008-02-02,31.24
2008-02-03,31.26
2008-02-04,31.2
2008-02-05,30.98
2008-02-06,31.01
2008-02-07,31.24
2008-02-08,31.26
2008-02-09,31.13
2008-02-10,31.22
2008-02-11,31.41
2008-02-12,31.53
2008-02-13,31.59
2008-02-14,31.49
2008-02-15,30.96
2008-02-16,30.57
2008-02-17,30.39
2008-02-18,30.2
2008-02-19,30.22
2008-02-20,31.02
2008-02-21,31.38
2008-02-22,31.52
2008-02-23,31.59
2008-02-24,31.63
2008-02-25,31.66
2008-02-26,31.69
2008-02-27,31.71
2008-02-28,31.63
2008-02-29,31.49
2008-03-01,31.61
2008-03-02,31.52
2008-03-03,31.22
2008-03-04,31.2
2008-03-05,30.77
2008-03-06,30.69
2008-03-07,30.99
2008-03-08,31.46
2008-03-09,31.57
2008-03-10,31.63
2008-03-11,31.68
2008-03-12,31.74
2008-03-13,31.77
2008-03-14,31.8
2008-03-15,31.83
2008-03-16,31.85
2008-03-17,31.87
2008-03-18,31.88
2008-03-19,31.89
2008-03-20,31.9
2008-03-21,31.91
2008-03-22,31.95
2008-03-23,32.13
2008-03-24,32.72
2008-03-25,32.93
2008-03-26,32.5
2008-03-27,32.43
2008-03-28,32.21
2008-03-29,32.17
2008-03-30,32.17
2008-03-31,32.16
2008-04-01,32.21
2008-04-02,32.95
2008-04-03,34.51
2008-04-04,35.27
2008-04-05,35.16
2008-04-06,35.98
2008-04-07,36.33
2008-04-08,36.72
2008-04-09,36.68
2008-04-10,37.84
2008-04-11,39.43
2008-04-12,42.25
2008-04-13,43.79
2008-04-14,42.24
2008-04-15,39.33
2008-04-16,40.67
2008-04-17,42.92
2008-04-18,43.8
2008-04-19,41.88
2008-04-20,38.21
2008-04-21,37.71
2008-04-22,38.95
2008-04-23,39.17
2008-04-24,41.39
2008-04-25,42.74
2008-04-26,45.15
2008-04-27,48.29
2008-04-28,49.3
2008-04-29,46.78
2008-04-30,43.85
2008-05-01,44.45
2008-05-02,47.23
2008-05-03,49.83
2008-05-04,50.19
2008-05-05,51.8
2008-05-06,52.7
2008-05-07,53.12
2008-05-08,51.51
2008-05-09,51.69
2008-05-10,52.14
2008-05-11,52.07
2008-05-12,51.15
2008-05-13,53.32
2008-05-14,54.99
2008-05-15,57.7
2008-05-16,60.01
2008-05-17,61.65
2008-05-18,62.31
2008-05-19,62.08
2008-05-20,59.02
2008-05-21,54.56
2008-05-22,52.7
2008-05-23,52.0
2008-05-24,51.55
2008-05-25,51.03
2008-05-26,53.61
2008-05-27,55.97
2008-05-28,53.94
2008-05-29,51.48
2008-05-30,56.21
2008-05-31,60.29
2008-06-01,60.9
2008-06-02,59.82
2008-06-03,60.03
2008-06-04,58.34
2008-06-05,57.21
2008-06-06,57.41
2008-06-07,58.4
2008-06-08,60.46
2008-06-09,60.8
2008-06-10,58.76
2008-06-11,58.61
2008-06-12,60.41
2008-06-13,62.64
2008-06-14,64.24
2008-06-15,65.31
2008-06-16,65.75
2008-06-17,64.89
2008-06-18,63.93
2008-06-19,64.72
2008-06-20,65.28
2008-06-21,63.12
2008-06-22,62.18
2008-06-23,63.71
2008-06-24,65.22
2008-06-25,66.39
2008-06-26,66.69
2008-06-27,68.86
2008-06-28,70.14
2008-06-29,70.86
2008-06-30,70.76
2008-07-01,70.13
2008-07-02,70.92
2008-07-03,70.47
2008-07-04,70.42
2008-07-05,69.51
2008-07-06,70.48
2008-07-07,70.06
2008-07-08,70.49
2008-07-09,71.14
2008-07-10,71.63
2008-07-11,70.07
2008-07-12,69.23
2008-07-13,70.32
2008-07-14,71.95
2008-07-15,72.02
2008-07-16,72.09
2008-07-17,71.32
2008-07-18,70.42
2008-07-19,69.56
2008-07-20,70.65
2008-07-21,72.36
2008-07-22,71.53
2008-07-23,69.01
2008-07-24,68.87
2008-07-25,69.78
2008-07-26,69.15
2008-07-27,69.16
2008-07-28,69.47
2008-07-29,68.86
2008-07-30,68.4
2008-07-31,68.73
2008-08-01,69.18
2008-08-02,69.48
2008-08-03,68.96
2008-08-04,69.83
2008-08-05,69.12
2008-08-06,69.81
2008-08-07,70.81
2008-08-08,69.78
2008-08-09,68.22
2008-08-10,67.25
2008-08-11,68.01
2008-08-12,68.99
2008-08-13,69.97
2008-08-14,70.3
2008-08-15,71.68
2008-08-16,71.51
2008-08-17,72.37
2008-08-18,69.8
2008-08-19,67.96
2008-08-20,67.21
2008-08-21,66.97
2008-08-22,65.26
2008-08-23,66.51
2008-08-24,67.82
2008-08-25,65.73
2008-08-26,62.57
2008-08-27,63.65
2008-08-28,64.42
2008-08-29,65.7
2008-08-30,65.36
2008-08-31,60.61
2008-09-01,57.92
2008-09-02,58.24
2008-09-03,60.18
2008-09-04,61.25
2008-09-05,62.26
2008-09-06,62.44
2008-09-07,63.07
2008-09-08,63.29
2008-09-09,61.86
2008-09-10,61.48
2008-09-11,60.53
2008-09-12,60.44
2008-09-13,61.53
2008-09-14,61.15